Overview Statistics Trail Chart Weather Telemetry Raw packets
 

This is the latest recevied weather packets stored in our database for station/object AA7VG. If no packets are shown the sender has not sent any weather packets the latest 10 day(s).

<< 18 19 20 21 22 23 24 >>
Time Temp. Humidity Pressure Rain* Wind** Luminosity Snow
1788487328 21.67° C 31% 1010.1 hPa 0 mm - - -
1788487026 21.67° C 30% 1009.7 hPa 0 mm - - -
1788486727 21.67° C 30% 1009.8 hPa 0 mm - - -
1788486425 21.67° C 29% 1010.1 hPa 0 mm - - -
1788486121 21.67° C 29% 1009.9 hPa 0 mm - - -
1788485818 21.67° C 30% 1009.7 hPa 0 mm - - -
1788485513 22.22° C 29% 1009.9 hPa 0 mm - - -
1788485209 22.22° C 29% 1009.9 hPa 0 mm - - -
1788484907 22.22° C 29% 1009.8 hPa 0 mm - - -
1788484607 22.78° C 29% 1009.6 hPa 0 mm - - -
1788484303 22.78° C 28% 1009.7 hPa 0 mm - - -
1788483998 22.78° C 27% 1009.6 hPa 0 mm - - -
1788483695 23.33° C 27% 1009.5 hPa 0 mm - - -
1788483390 23.33° C 26% 1009.4 hPa 0 mm - - -
1788483085 23.89° C 25% 1009.5 hPa 0 mm - - -
1788482780 23.89° C 25% 1009.7 hPa 0 mm - - -
1788482480 25° C 25% 1009.6 hPa 0 mm - - -
1788482176 25.56° C 23% 1009.4 hPa 0 mm - - -
1788481872 25.56° C 24% 1009.3 hPa 0 mm - - -
1788481568 24.44° C 25% 1009.5 hPa 0 mm - - -
1788481262 24.44° C 26% 1009.5 hPa 0 mm - - -
1788480957 23.89° C 26% 1009.4 hPa 0 mm - - -
1788480656 23.33° C 26% 1009.1 hPa 0 mm - - -
1788480351 23.89° C 25% 1009.4 hPa 0 mm - - -
1788480048 23.89° C 26% 1009.6 hPa 0 mm - - -

* Rain latest hour (hover to see other rain measurements)
** Current wind speed in m/s (hover to see current wind gust speed)